Temp
-0 -0 -1 -1 -2 -2 -2 -3 -4 -4 -4 -4 -5 -6 -6 -7 -7 -8 -8 -8 -7 -7 -6 -7 -6 -6 -6 -6 -5 -5 -5 -4 -4 2 5 5 4 5 7 8 9 10 10
-0 -0 -1 -1 -2 -2 -3 -3 -4 -4 -4 -4 -5 -6 -7 -7 -8 -8 -8 -8 -7 -7 -6 -6 -5 -5 -5 -5 -5 -5 -5 -4 -3 1 5 5 5 6 7 8 9 10 10
0 -0 -1 -2 -2 -2 -3 -3 -3 -4 -4 -4 -5 -7 -7 -8 -8 -8 -8 -7 -7 -6 -6 -5 -4 -5 -5 -5 -5 -4 -4 -2 -0 2 5 5 7 7 8 9 9 9 9
0 -0 -1 -2 -2 -3 -3 -3 -3 -4 -4 -4 -6 -6 -7 -7 -8 -7 -7 -7 -6 -6 -5 -4 -3 -2 -2 -1 -1 -1 -0 -0 1 2 4 7 8 8 9 9 9 9 10
0 -0 -1 -2 -2 -3 -3 -3 -3 -3 -3 -4 -5 -7 -7 -7 -7 -7 -7 -7 -6 -5 -4 -3 -2 -1 -1 -0 1 1 2 3 3 5 5 9 8 8 8 9 9 9 8
0 -0 -1 -1 -2 -2 -2 -3 -3 -3 -3 -3 -5 -7 -6 -6 -7 -7 -7 -6 -5 -4 -3 -2 -1 -0 -0 0 2 5 6 5 6 8 8 8 8 8 8 9 8 8 8
0 -0 -1 -1 -2 -2 -2 -2 -3 -3 -3 -3 -4 -6 -6 -6 -7 -7 -6 -5 -4 -4 -3 0 1 0 3 5 7 7 7 8 8 8 8 8 8 8 8 8 8 8 8
0 -0 -1 -1 -1 -2 -2 -2 -2 -2 -2 -3 -3 -5 -6 -5 -6 -6 -4 -4 -2 -2 -2 1 2 5 6 6 7 7 7 7 8 9 9 8 9 8 8 9 8 8 8
-0 -1 -1 -2 -2 -2 -2 -2 -2 -2 -2 -2 -3 -4 -5 -4 -4 -5 -4 -4 -2 -2 -1 -0 3 5 6 7 7 8 8 7 8 8 8 8 8 8 9 8 8 8 7
-1 -1 -1 -2 -2 -2 -2 -2 -2 -2 -2 -2 -3 -4 -5 -6 -3 -2 -2 -3 -2 -2 -1 0 2 3 6 7 7 8 8 7 8 8 8 8 8 9 8 9 8 8 7
0 -1 -2 -2 -2 -2 -2 -2 -2 -2 -2 -2 -2 -2 -3 -4 -3 -2 -1 -2 -3 -2 -2 -2 -2 4 6 7 7 7 7 7 8 7 8 8 8 8 8 9 8 8 8
0 -0 -1 -1 -2 -2 -2 -2 -2 -2 -2 -2 -1 -1 -0 -1 -1 -3 -1 -1 -1 -1 -3 -3 -3 1 3 5 6 5 5 7 7 7 7 8 7 8 8 9 8 8 8
-0 -0 -1 -2 -2 -2 -1 0 -0 -2 -2 -1 -2 -1 -0 1 0 -0 -1 -0 -0 -0 -1 -1 -1 1 1 2 2 3 5 6 6 7 6 6 7 7 8 8 8 8 9
0 -0 1 1 1 1 -0 0 1 1 -0 -1 -2 -1 0 0 1 1 1 0 0 1 1 1 1 1 1 1 1 2 2 3 3 4 4 4 5 7 8 8 8 8 8
0 -0 -1 -1 -1 1 1 0 -0 -0 -0 -1 -2 -2 -0 -1 -2 -0 1 2 2 2 2 2 2 2 1 0 -0 -1 -0 1 2 2 2 2 4 6 6 6 7 7 8
0 0 -0 -1 -1 -2 -1 -0 -0 -1 -1 -1 -1 -1 -1 -1 0 1 1 2 2 3 3 2 1 1 0 0 -1 -1 -0 0 1 2 3 3 3 4 4 5 7 7 7
1 1 1 -1 -1 -1 -1 -2 -0 -1 -0 -0 -0 -0 -0 0 1 1 1 2 3 3 2 1 0 1 1 1 1 1 0 0 1 1 2 2 3 4 4 4 5 4 4
2 2 1 1 1 0 1 1 0 0 0 -0 0 0 0 1 1 2 2 2 2 2 1 0 0 1 1 1 1 1 1 1 1 1 1 1 2 3 4 5 6 6 5
3 2 3 3 2 2 2 1 1 1 0 0 0 0 1 1 2 2 2 1 1 0 0 0 -0 -0 0 1 1 1 1 1 1 2 1 1 1 2 2 2 2 2 2
4 4 3 3 3 2 2 2 1 1 1 1 1 1 1 1 1 1 1 1 1 1 0 0 -0 -0 0 -0 0 0 0 0 0 1 1 1 1 1 1 1 1 1 0
4 4 4 3 3 3 3 2 2 2 2 1 1 1 2 1 1 1 1 1 1 0 0 0 0 0 0 0 1 0 0 0 0 1 1 0 1 1 0 1 1 1 1
5 4 4 4 3 3 3 3 3 2 2 2 2 2 2 2 2 1 1 1 1 1 1 1 0 0 1 1 0 0 0 0 0 0 0 0 0 0 0 0 0 0 -0
5 5 4 4 4 4 4 3 3 3 3 3 2 2 2 2 2 2 1 1 1 1 1 1 1 1 1 1 1 0 -0 -0 -0 -0 -0 -0 0 -0 -0 -0 -0 -0 -0
6 5 5 4 4 4 4 4 4 4 4 3 3 3 3 3 2 2 2 2 2 1 1 1 1 1 0 0 0 0 0 -0 -0 -0 -1 -1 -1 -1 -1 -1 -1 -1 -1
6 6 5 5 5 5 5 4 4 4 4 4 4 3 3 3 3 3 3 2 2 2 2 2 1 1 1 1 0 -0 -0 -1 -1 -1 -1 -1 -1 -1 -2 -2 -2 -2 -2
7 6 6 6 6 6 5 5 5 4 4 4 4 4 4 4 3 3 3 3 2 2 2 2 1 1 1 1 0 -0 0 0 -0 -1 -2 -1 -2 -2 -2 -2 -2 -2 -3
Height
1511 1508 1504 1500 1495 1489 1484 1477 1470 1464 1457 1450 1443 1434 1424 1414 1405 1396 1389 1384 1379 1374 1371 1367 1365 1365 1368 1372 1377 1381 1386 1390 1391 1390 1396 1400 1407 1411 1417 1428 1439 1451 1467
1513 1510 1505 1501 1495 1490 1484 1477 1471 1464 1458 1451 1441 1432 1421 1411 1401 1393 1386 1380 1374 1368 1364 1358 1355 1354 1358 1364 1369 1374 1379 1383 1385 1385 1392 1397 1403 1409 1420 1431 1440 1455 1468
1514 1511 1507 1502 1496 1490 1485 1478 1472 1465 1459 1452 1443 1430 1419 1409 1400 1392 1385 1377 1370 1366 1361 1353 1350 1351 1354 1359 1365 1371 1374 1378 1380 1384 1391 1394 1402 1412 1420 1429 1441 1456 1471
1516 1513 1508 1503 1498 1492 1486 1480 1474 1467 1462 1454 1443 1434 1422 1410 1402 1393 1385 1377 1371 1368 1359 1353 1352 1353 1355 1358 1364 1368 1372 1375 1379 1382 1386 1392 1402 1411 1420 1429 1449 1464 1477
1518 1515 1511 1506 1501 1495 1489 1483 1476 1470 1465 1458 1446 1433 1423 1414 1405 1396 1387 1378 1379 1368 1362 1358 1356 1357 1359 1363 1364 1367 1370 1372 1376 1381 1386 1382 1397 1408 1424 1440 1451 1468 1487
1520 1517 1513 1509 1504 1498 1492 1486 1480 1473 1467 1459 1449 1438 1423 1417 1408 1400 1391 1383 1379 1375 1368 1363 1362 1361 1363 1365 1365 1366 1365 1375 1378 1376 1384 1392 1408 1418 1433 1443 1452 1467 1484
1523 1520 1516 1512 1507 1502 1496 1490 1484 1477 1470 1462 1454 1445 1431 1422 1414 1401 1393 1387 1380 1379 1375 1370 1371 1369 1367 1366 1369 1369 1373 1378 1380 1387 1393 1404 1415 1432 1438 1450 1463 1477 1488
1526 1523 1520 1515 1511 1507 1500 1495 1489 1482 1475 1469 1461 1452 1437 1427 1421 1409 1398 1392 1387 1380 1381 1376 1376 1374 1373 1374 1377 1380 1385 1393 1397 1401 1409 1417 1426 1439 1448 1456 1469 1481 1494
1529 1527 1524 1519 1515 1511 1505 1500 1495 1489 1482 1477 1469 1457 1445 1434 1427 1418 1408 1402 1398 1393 1391 1390 1389 1388 1388 1389 1392 1393 1395 1401 1411 1417 1423 1431 1438 1450 1458 1466 1477 1486 1497
1532 1531 1528 1524 1520 1517 1512 1507 1503 1497 1490 1484 1477 1468 1460 1447 1438 1429 1420 1413 1408 1405 1403 1400 1399 1400 1401 1401 1401 1405 1408 1413 1420 1426 1434 1443 1451 1463 1470 1480 1487 1492 1503
1536 1534 1532 1529 1527 1523 1519 1514 1509 1503 1497 1490 1483 1476 1467 1459 1451 1444 1437 1428 1423 1419 1415 1414 1414 1412 1412 1413 1416 1418 1423 1428 1434 1439 1445 1453 1462 1471 1478 1486 1496 1502 1510
1540 1538 1536 1533 1531 1529 1524 1520 1516 1511 1504 1497 1491 1484 1477 1471 1464 1458 1453 1448 1443 1436 1433 1431 1430 1427 1425 1424 1425 1431 1433 1437 1441 1447 1455 1464 1472 1478 1486 1494 1504 1511 1519
1544 1543 1541 1540 1538 1535 1530 1525 1521 1518 1513 1507 1500 1495 1490 1485 1478 1472 1468 1464 1459 1452 1450 1448 1443 1439 1436 1435 1437 1441 1444 1447 1451 1456 1461 1468 1477 1484 1491 1498 1509 1518 1524
1548 1548 1547 1545 1543 1540 1537 1534 1530 1525 1522 1518 1514 1508 1505 1499 1492 1487 1483 1480 1475 1471 1466 1462 1458 1457 1454 1454 1453 1452 1454 1457 1461 1465 1471 1477 1484 1490 1498 1507 1513 1520 1528
1552 1552 1552 1551 1550 1547 1544 1542 1539 1536 1533 1529 1524 1522 1519 1512 1508 1504 1500 1494 1490 1488 1485 1480 1475 1474 1472 1471 1470 1469 1471 1472 1473 1479 1484 1489 1492 1500 1507 1513 1519 1526 1533
1556 1557 1556 1556 1556 1555 1553 1551 1548 1546 1544 1540 1536 1533 1532 1530 1527 1522 1515 1509 1505 1502 1495 1493 1492 1491 1489 1490 1489 1489 1487 1487 1489 1492 1494 1499 1504 1508 1514 1520 1525 1532 1539
1560 1559 1559 1561 1560 1560 1559 1558 1556 1555 1552 1549 1546 1543 1542 1540 1538 1535 1530 1525 1519 1515 1507 1508 1507 1507 1508 1507 1507 1507 1507 1509 1511 1508 1508 1511 1516 1522 1525 1527 1537 1540 1547
1561 1562 1563 1563 1563 1563 1563 1562 1561 1560 1558 1557 1555 1553 1551 1550 1548 1545 1541 1537 1532 1529 1526 1526 1525 1524 1524 1522 1522 1523 1524 1525 1526 1527 1528 1530 1531 1531 1532 1535 1540 1548 1554
1563 1564 1565 1566 1566 1566 1566 1566 1566 1565 1565 1564 1563 1562 1561 1558 1557 1555 1552 1547 1546 1545 1544 1542 1541 1540 1539 1539 1540 1540 1541 1541 1541 1541 1541 1542 1544 1546 1548 1552 1556 1561 1565
1565 1566 1567 1568 1569 1569 1569 1570 1570 1570 1569 1569 1569 1568 1567 1567 1565 1563 1560 1557 1557 1556 1556 1555 1554 1555 1554 1555 1555 1555 1554 1554 1553 1554 1554 1556 1558 1559 1560 1563 1566 1569 1573
1567 1568 1569 1570 1571 1572 1572 1573 1573 1573 1573 1574 1573 1573 1573 1572 1571 1569 1567 1565 1565 1566 1567 1566 1567 1566 1566 1566 1565 1566 1566 1566 1566 1567 1568 1569 1570 1571 1573 1575 1576 1579 1582
1567 1569 1571 1572 1573 1574 1574 1575 1576 1576 1576 1577 1577 1577 1577 1577 1577 1577 1577 1577 1576 1575 1574 1575 1575 1574 1575 1575 1576 1576 1578 1578 1579 1579 1580 1580 1582 1583 1585 1585 1586 1588 1589
1567 1569 1571 1573 1574 1575 1576 1577 1577 1578 1579 1579 1580 1580 1580 1580 1581 1581 1581 1581 1581 1581 1581 1581 1580 1581 1581 1582 1582 1583 1585 1587 1587 1587 1588 1589 1589 1590 1591 1592 1593 1594 1594
1566 1569 1571 1572 1574 1575 1576 1577 1578 1579 1580 1581 1581 1582 1582 1583 1583 1583 1584 1584 1584 1585 1586 1586 1586 1586 1587 1587 1587 1588 1589 1590 1591 1591 1593 1594 1593 1593 1595 1596 1597 1597 1597
1564 1567 1569 1571 1573 1574 1576 1577 1578 1579 1580 1581 1582 1583 1583 1584 1584 1585 1585 1586 1586 1587 1587 1587 1587 1589 1590 1590 1591 1591 1592 1594 1593 1595 1596 1596 1596 1596 1598 1598 1597 1598 1598
1561 1564 1566 1569 1571 1572 1574 1576 1577 1578 1580 1581 1582 1582 1583 1584 1584 1585 1585 1586 1587 1588 1588 1589 1590 1590 1590 1589 1591 1593 1593 1593 1594 1595 1595 1595 1595 1596 1596 1596 1596 1596 1594
Wind_Speed
10 12 14 16 17 19 20 21 22 24 25 26 27 29 32 36 33 24 19 17 16 15 13 12 15 17 25 27 30 31 30 31 30 19 27 30 29 32 36 44 47 59 66
11 13 15 16 18 19 21 22 24 24 25 27 28 33 36 37 29 22 22 19 18 13 9 7 6 18 23 27 29 31 34 30 32 17 27 32 32 37 42 46 57 61 67
11 13 15 17 19 20 22 23 24 25 26 28 32 35 39 30 26 24 23 18 14 10 13 19 3 10 18 24 27 26 28 32 26 15 21 35 43 39 51 58 61 65 64
11 13 15 17 19 21 22 23 24 25 27 30 35 32 42 30 27 26 22 19 15 16 18 21 11 13 19 20 24 25 24 26 23 19 21 47 36 63 61 62 58 58 57
11 14 15 17 19 21 23 23 24 26 28 31 39 33 44 32 27 25 23 22 25 22 23 24 19 16 21 22 20 19 24 24 18 40 37 49 58 58 56 53 58 62 54
11 14 15 17 19 21 23 24 25 28 29 33 44 37 48 33 25 27 28 30 30 29 27 27 28 24 21 22 23 22 22 31 34 37 47 50 55 58 51 55 55 58 49
11 13 15 17 19 22 23 24 26 30 31 39 40 41 45 34 28 28 33 35 34 36 37 32 28 29 33 25 31 49 40 32 50 48 59 52 53 61 56 56 57 48 43
11 13 15 17 20 21 23 25 26 28 31 36 38 43 43 41 34 32 36 39 37 38 41 36 38 39 39 34 44 42 49 46 47 49 52 49 51 56 58 58 56 49 49
11 13 15 17 19 22 24 26 27 27 30 32 35 39 48 48 41 38 40 42 42 42 41 40 38 40 39 38 38 44 39 46 48 48 44 41 56 53 53 58 53 57 51
11 13 14 16 19 21 23 24 24 25 28 30 34 36 41 47 49 46 44 47 47 45 42 40 37 36 40 37 40 40 40 39 41 44 36 36 40 47 46 46 53 56 52
11 12 14 16 18 20 21 23 24 26 28 34 37 37 40 44 48 50 50 52 50 48 48 46 43 35 33 33 34 37 40 35 31 32 32 27 38 41 41 44 48 51 47
11 13 15 18 18 19 21 21 24 27 32 35 41 41 40 42 43 46 48 47 49 50 48 46 44 41 39 36 35 34 38 38 34 37 36 41 33 38 41 45 44 42 42
11 13 15 16 18 20 24 27 28 29 36 41 44 46 43 40 43 43 43 46 49 50 51 50 49 46 44 42 38 37 38 41 42 38 43 46 43 41 39 42 41 39 40
11 13 16 19 21 22 24 31 34 34 34 39 44 47 46 44 45 45 45 42 45 48 50 53 53 53 53 50 47 48 46 44 44 43 42 44 44 42 38 40 40 40 33
11 12 13 14 17 23 27 29 31 33 35 36 37 40 43 45 45 43 44 47 47 46 46 49 55 55 57 55 53 51 50 48 47 43 39 39 43 41 42 40 39 36 33
9 9 11 12 12 13 18 24 26 28 28 31 34 35 36 38 39 41 45 48 48 50 54 55 55 52 54 54 55 53 52 52 51 48 45 42 38 38 38 37 35 32 29
8 9 11 10 11 12 13 14 18 22 26 28 30 31 31 32 35 39 43 46 49 51 58 56 55 54 51 49 49 50 52 51 49 51 54 54 52 49 45 43 36 37 34
8 10 9 10 11 12 15 17 18 19 22 24 26 27 27 28 31 34 38 42 48 50 51 52 52 52 51 51 50 46 44 44 45 47 47 46 45 46 45 41 36 33 29
9 8 8 9 11 11 13 14 16 17 18 19 20 22 23 25 27 28 34 40 41 42 43 45 45 46 46 46 46 46 46 45 44 43 42 40 39 38 39 37 34 31 28
10 8 8 8 8 9 10 11 13 14 16 16 17 18 20 20 22 26 30 33 35 35 35 37 38 38 39 39 39 40 41 42 42 42 41 41 40 38 37 33 30 28 25
10 9 8 7 7 7 7 8 9 11 12 13 14 15 16 18 20 22 24 26 27 28 29 30 30 30 32 32 33 33 34 35 36 35 35 34 33 33 32 31 30 29 27
11 10 9 7 6 6 6 6 6 7 8 9 10 11 12 14 15 17 18 18 20 21 21 22 23 23 24 25 25 26 25 26 27 27 27 27 26 26 25 24 23 22 21
12 11 10 9 8 6 5 4 4 4 4 5 6 7 8 10 11 11 12 13 15 15 15 16 16 17 17 18 18 18 17 18 18 18 18 18 18 17 16 15 14 14 13
14 13 12 11 10 8 7 6 5 3 2 2 3 3 5 5 6 7 8 9 10 10 11 11 11 11 11 11 11 11 11 11 10 10 10 9 9 9 8 7 7 6 5
17 16 15 13 12 11 9 8 7 6 5 4 2 1 1 2 3 3 4 4 5 5 6 6 7 6 6 6 6 6 5 5 5 4 3 3 3 2 1 1 1 2 3
19 18 17 16 15 14 13 12 10 9 8 7 6 5 4 3 2 1 0 0 1 1 1 2 2 2 3 4 4 4 4 5 4 4 4 5 4 4 5 6 7 8 8
Wind_Direction
3 0 358 354 351 347 345 345 342 342 341 341 339 337 330 339 339 339 331 332 328 323 304 276 261 236 223 218 216 215 213 215 230 212 198 187 188 204 179 175 177 180 179
6 3 0 357 354 351 351 350 347 345 348 346 342 340 344 345 353 353 352 352 350 337 331 351 233 218 212 204 204 206 210 211 212 212 177 180 191 177 167 166 160 174 176
10 6 3 1 357 355 355 352 350 351 353 354 351 354 344 359 6 7 3 4 8 16 31 49 107 171 180 186 189 198 202 198 203 197 177 185 164 164 160 156 154 162 165
14 10 6 3 360 358 357 355 356 357 1 2 357 360 359 18 21 20 16 24 40 48 63 72 92 141 149 159 171 184 193 197 199 193 179 161 168 152 145 143 153 157 154
18 14 10 5 2 2 1 2 1 4 8 7 5 1 8 30 26 23 32 41 55 72 84 90 105 144 154 162 168 180 189 187 201 159 177 132 137 142 140 144 149 153 158
21 18 13 10 8 8 7 7 9 9 10 11 16 13 11 31 32 27 45 54 62 79 85 90 95 102 121 133 132 148 157 139 173 127 134 122 141 141 148 149 146 145 142
27 22 18 14 13 13 11 13 13 11 9 16 16 17 13 35 41 50 54 59 61 69 80 97 107 98 106 125 118 121 126 122 125 114 122 128 131 147 148 146 142 143 145
33 27 23 20 17 17 16 18 16 13 13 14 18 17 20 41 51 58 64 64 65 64 71 80 84 89 87 108 114 122 114 134 131 128 129 125 145 149 149 147 144 139 144
37 33 27 26 22 21 20 19 18 17 18 20 21 20 26 40 51 62 70 70 68 66 69 77 87 91 101 100 114 111 112 114 123 134 121 134 137 151 145 148 144 144 142
43 38 33 31 28 25 24 22 21 23 24 25 26 31 26 37 48 55 66 72 72 71 72 73 80 92 99 107 101 106 107 109 129 125 126 118 131 149 147 154 157 149 146
53 45 38 36 31 29 27 28 27 27 30 35 37 43 45 44 50 53 57 65 70 71 72 72 74 84 98 100 104 107 109 115 131 136 140 136 132 147 152 155 159 154 156
66 56 49 44 41 35 32 34 35 36 41 45 48 51 52 55 56 54 60 63 68 71 74 78 82 84 86 95 104 108 111 112 117 139 142 141 143 141 149 156 162 160 162
75 65 53 45 43 43 46 50 53 50 50 53 56 54 55 60 63 66 64 67 70 73 75 78 82 83 85 88 97 109 113 113 118 126 126 124 139 142 147 153 164 165 166
82 73 66 62 57 60 61 58 59 58 58 58 56 60 58 61 66 67 71 74 74 74 76 76 77 78 81 86 91 93 97 101 105 110 118 123 129 137 149 157 164 167 166
91 80 73 68 61 62 63 62 62 59 60 59 60 61 62 61 63 69 73 75 77 81 84 83 82 79 78 78 80 86 92 97 97 100 106 115 122 135 139 144 159 163 160
97 86 85 75 72 65 62 65 65 66 64 65 66 65 69 71 73 74 76 79 80 81 80 78 76 77 77 78 79 81 85 92 97 100 102 103 106 117 121 127 147 156 146
113 99 87 81 77 76 75 70 70 70 69 67 67 68 68 72 74 76 77 77 78 78 77 76 76 76 77 80 81 81 82 84 88 95 104 105 104 102 103 102 104 100 100
133 116 103 92 83 79 82 81 79 77 74 72 71 70 70 70 73 76 77 78 76 75 75 76 76 78 78 78 79 81 86 90 91 93 94 94 96 102 107 105 102 98 101
143 131 118 106 98 91 86 84 81 78 76 75 76 76 73 73 74 75 77 77 77 77 78 78 78 77 77 80 82 83 83 83 87 91 93 94 95 98 99 102 105 110 115
160 145 133 119 108 99 92 86 82 79 77 76 75 76 79 79 77 73 74 77 78 77 76 78 79 79 80 81 81 83 85 84 83 83 85 88 92 95 97 101 104 109 112
171 164 154 143 130 117 105 96 91 85 80 78 75 74 72 74 73 72 69 71 74 78 80 81 81 81 81 80 79 79 80 83 84 86 87 87 89 92 95 97 99 101 104
185 179 176 168 157 145 133 120 108 100 94 88 83 79 76 76 76 76 77 77 79 79 78 78 79 79 79 80 80 80 80 82 85 86 87 89 91 93 95 97 99 101 102
199 194 192 190 186 177 166 155 140 122 108 100 93 89 85 84 82 79 79 78 80 82 83 81 76 76 76 76 75 77 81 82 83 83 85 88 90 92 92 93 94 97 101
209 206 207 208 203 198 195 190 183 173 150 122 99 88 82 76 73 73 73 73 74 78 81 81 80 79 78 75 78 79 80 80 80 80 82 85 85 87 94 101 105 113 123
212 214 214 216 216 214 211 208 207 202 196 189 186 177 131 95 89 78 70 65 65 63 58 51 50 58 69 75 71 72 77 81 77 76 84 83 76 73 62 344 302 264 263
219 219 221 222 221 220 219 219 217 217 216 214 211 211 217 228 233 216 181 41 31 50 61 61 46 32 22 25 21 19 22 8 353 345 337 333 319 304 292 291 290 287 288